Location: Chabot Space and Science Center
(37.8191°N, 122.1819°W)
Time: 15:27:04
(UTC-08:00)

ISS - Pass Details

Date: 06 December 2021
Orbit: 413 x 422 km, 51.6° (Epoch: 20 January)

Event Time Altitude Azimuth Distance (km) Brightness Sun altitude
Rises 18:09:25 0° 311° (NW) 2,382 0.5 -15.4°
Reaches altitude 10° 18:11:32 10° 313° (NW) 1,512 -0.5 -15.8°
Maximum altitude 18:14:55 71° 38° (NE) 448 -3.9 -16.4°
Enters shadow 18:16:09 36° 114° (ESE) 688 -3.1 -16.7°
